This is the latest recevied weather packets stored in our database for station/object R1CBW-13. If no packets are shown the sender has not sent any weather packets the latest 1 day(s).
| Time | Temp. | Humidity | Pressure | Rain* | Wind** | Luminosity | Snow |
|---|---|---|---|---|---|---|---|
| 1778049749 | 7.22° C | 57% | 1009.6 hPa | 0 mm | 0 m/s | - | - |
| 1778049689 | 7.22° C | 57% | 1009.5 hPa | 0 mm | 0 m/s | - | - |
| 1778049642 | 7.78° C | 55% | 1009.7 hPa | 0 mm | 0 m/s | - | - |
| 1778049569 | 8.89° C | 56% | 1009.5 hPa | 0 mm | 0 m/s | - | - |
| 1778049509 | 8.89° C | 55% | 1009.5 hPa | 0 mm | 0 m/s | - | - |
| 1778049449 | 8.89° C | 56% | 1009.5 hPa | 0 mm | 0 m/s | - | - |
| 1778049388 | 8.33° C | 57% | 1009.5 hPa | 0 mm | 0 m/s | - | - |
| 1778049328 | 8.33° C | 57% | 1009.5 hPa | 0 mm | 0 m/s | - | - |
| 1778049268 | 8.33° C | 59% | 1009.4 hPa | 0 mm | 0 m/s | - | - |
| 1778049208 | 7.22° C | 61% | 1009.4 hPa | 0 mm | 0 m/s | - | - |
| 1778049148 | 7.22° C | 62% | 1009.5 hPa | 0 mm | 0 m/s | - | - |
| 1778049088 | 6.67° C | 62% | 1009.3 hPa | 0 mm | 0 m/s | - | - |
| 1778049028 | 7.22° C | 62% | 1009.4 hPa | 0 mm | 0 m/s | - | - |
| 1778048968 | 6.67° C | 62% | 1009.4 hPa | 0 mm | 0 m/s | - | - |
| 1778048908 | 6.67° C | 62% | 1009.4 hPa | 0 mm | 0 m/s | - | - |
| 1778048848 | 6.67° C | 62% | 1009.5 hPa | 0 mm | 0 m/s | - | - |
| 1778048788 | 7.22° C | 60% | 1009.5 hPa | 0 mm | 0 m/s | - | - |
| 1778048728 | 7.78° C | 60% | 1009.3 hPa | 0 mm | 0 m/s | - | - |
| 1778048668 | 7.22° C | 60% | 1009.3 hPa | 0 mm | 0 m/s | - | - |
| 1778048608 | 8.33° C | 59% | 1009.3 hPa | 0 mm | 0 m/s | - | - |
| 1778048548 | 7.78° C | 61% | 1009.3 hPa | 0 mm | 0 m/s | - | - |
| 1778048488 | 7.22° C | 62% | 1009.3 hPa | 0 mm | 0 m/s | - | - |
| 1778048428 | 6.67° C | 63% | 1009.2 hPa | 0 mm | 0 m/s | - | - |
| 1778048368 | 6.67° C | 62% | 1009.3 hPa | 0 mm | 0 m/s | - | - |
| 1778048308 | 7.22° C | 62% | 1009.2 hPa | 0 mm | 0 m/s | - | - |
* Rain latest hour (hover to see other rain measurements)
** Current wind speed in m/s (hover to see current wind gust speed)